Time,TemperatureF,DewpointF,PressureIn,WindDirection,WindDirectionDegrees,WindSpeedMPH,WindSpeedGustMPH,Humidity,HourlyPrecipIn,Conditions,Clouds,dailyrainin,SoftwareType,DateUTC
2013-03-12 00:00:00,50.4,43.5,29.76,North,0,0.4,0.4,77,0.03,,,0.80,WUHU216TE923,2013-03-12 04:00:00,
2013-03-12 00:05:00,50.2,43.3,29.76,North,0,0.0,0.4,77,0.03,,,0.00,WUHU216TE923,2013-03-12 04:05:00,
2013-03-12 00:10:00,50.2,43.0,29.76,North,0,0.1,0.1,76,0.03,,,0.00,WUHU216TE923,2013-03-12 04:10:00,
2013-03-12 00:15:00,50.0,42.8,29.76,North,0,0.1,0.1,76,0.03,,,0.00,WUHU216TE923,2013-03-12 04:15:00,
2013-03-12 00:20:00,50.0,42.8,29.76,NNE,23,0.3,1.2,76,0.03,,,0.00,WUHU216TE923,2013-03-12 04:20:00,
2013-03-12 00:25:00,49.8,42.9,29.76,NNE,23,0.5,1.2,77,0.03,,,0.00,WUHU216TE923,2013-03-12 04:25:00,
2013-03-12 00:30:00,49.6,42.7,29.74,NE,45,1.1,1.6,77,0.00,,,0.00,WUHU216TE923,2013-03-12 04:30:00,
2013-03-12 00:35:00,49.5,42.6,29.74,East,90,1.2,1.8,77,0.00,,,0.00,WUHU216TE923,2013-03-12 04:35:00,
2013-03-12 00:40:00,48.9,42.1,29.74,NNE,23,1.7,2.6,77,0.03,,,0.03,WUHU216TE923,2013-03-12 04:40:00,
2013-03-12 00:45:00,48.6,41.8,29.74,NNE,23,2.2,5.2,77,0.03,,,0.03,WUHU216TE923,2013-03-12 04:45:00,
2013-03-12 00:50:00,48.0,41.2,29.77,NE,45,2.8,5.2,77,0.03,,,0.03,WUHU216TE923,2013-03-12 04:50:00,
2013-03-12 00:55:00,47.5,40.4,29.77,NNW,338,3.3,4.2,76,0.03,,,0.03,WUHU216TE923,2013-03-12 04:55:00,
2013-03-12 01:00:00,46.8,39.4,29.77,NNE,23,3.2,5.7,75,0.03,,,0.03,WUHU216TE923,2013-03-12 05:00:00,
2013-03-12 01:05:00,46.6,39.2,29.77,NNE,23,3.2,5.7,75,0.03,,,0.03,WUHU216TE923,2013-03-12 05:05:00,
2013-03-12 01:10:00,46.4,39.0,29.76,NE,45,3.2,3.2,75,0.03,,,0.03,WUHU216TE923,2013-03-12 05:10:00,
2013-03-12 01:15:00,46.2,38.8,29.76,NE,45,2.7,3.2,75,0.03,,,0.03,WUHU216TE923,2013-03-12 05:15:00,
2013-03-12 01:20:00,46.0,38.6,29.76,NNE,23,1.9,2.9,75,0.03,,,0.03,WUHU216TE923,2013-03-12 05:20:00,
2013-03-12 01:25:00,45.9,38.5,29.76,NNE,23,1.5,2.9,75,0.03,,,0.03,WUHU216TE923,2013-03-12 05:25:00,
2013-03-12 01:30:00,45.5,38.1,29.76,North,0,1.4,2.9,75,0.03,,,0.03,WUHU216TE923,2013-03-12 05:30:00,
2013-03-12 01:35:00,45.5,38.1,29.76,NNW,338,1.4,1.7,75,0.00,,,0.03,WUHU216TE923,2013-03-12 05:35:00,
2013-03-12 01:40:00,45.1,37.4,29.76,NW,315,1.5,1.5,74,0.00,,,0.03,WUHU216TE923,2013-03-12 05:40:00,
2013-03-12 01:45:00,45.1,37.4,29.76,NW,315,1.3,1.5,74,0.00,,,0.03,WUHU216TE923,2013-03-12 05:45:00,
2013-03-12 01:50:00,45.0,37.6,29.76,NNW,338,1.2,2.7,75,0.00,,,0.03,WUHU216TE923,2013-03-12 05:50:00,
2013-03-12 01:55:00,45.0,37.6,29.76,NNE,23,1.4,2.7,75,0.00,,,0.03,WUHU216TE923,2013-03-12 05:55:00,
2013-03-12 02:00:00,44.6,37.2,29.76,NNE,23,1.5,2.7,75,0.00,,,0.03,WUHU216TE923,2013-03-12 06:00:00,
2013-03-12 02:05:00,44.6,37.2,29.76,North,0,1.8,2.7,75,0.00,,,0.03,WUHU216TE923,2013-03-12 06:05:00,
2013-03-12 02:10:00,44.4,37.0,29.77,NW,315,1.4,1.8,75,0.00,,,0.03,WUHU216TE923,2013-03-12 06:10:00,
2013-03-12 02:15:00,44.2,36.8,29.77,NW,315,1.5,3.9,75,0.00,,,0.03,WUHU216TE923,2013-03-12 06:15:00,
2013-03-12 02:20:00,44.1,36.7,29.77,North,0,1.4,3.9,75,0.00,,,0.03,WUHU216TE923,2013-03-12 06:20:00,
2013-03-12 02:25:00,44.2,37.2,29.77,West,270,1.6,1.6,76,0.00,,,0.03,WUHU216TE923,2013-03-12 06:25:00,
2013-03-12 02:30:00,44.1,37.1,29.78,East,90,1.9,1.9,76,0.00,,,0.03,WUHU216TE923,2013-03-12 06:30:00,
2013-03-12 02:35:00,43.9,36.9,29.78,NNE,23,1.7,5.0,76,0.00,,,0.03,WUHU216TE923,2013-03-12 06:35:00,
2013-03-12 02:40:00,43.5,36.5,29.78,WSW,248,2.0,5.0,76,0.00,,,0.03,WUHU216TE923,2013-03-12 06:40:00,
2013-03-12 02:45:00,43.5,36.5,29.78,NNE,23,2.3,3.2,76,0.00,,,0.03,WUHU216TE923,2013-03-12 06:45:00,
2013-03-12 02:50:00,43.3,36.3,29.79,NE,45,1.7,3.2,76,0.00,,,0.03,WUHU216TE923,2013-03-12 06:50:00,
2013-03-12 02:55:00,43.2,36.2,29.79,NNE,23,2.0,3.4,76,0.00,,,0.03,WUHU216TE923,2013-03-12 06:55:00,
2013-03-12 03:00:00,43.0,36.0,29.79,North,0,1.7,3.5,76,0.00,,,0.03,WUHU216TE923,2013-03-12 07:00:00,
2013-03-12 03:05:00,42.8,35.8,29.79,NW,315,1.7,3.5,76,0.00,,,0.03,WUHU216TE923,2013-03-12 07:05:00,
2013-03-12 03:10:00,42.8,35.5,29.77,NNE,23,1.5,2.6,75,0.00,,,0.03,WUHU216TE923,2013-03-12 07:10:00,
2013-03-12 03:15:00,42.8,35.5,29.77,NNE,23,1.5,2.6,75,0.00,,,0.03,WUHU216TE923,2013-03-12 07:15:00,
2013-03-12 03:20:00,42.4,35.4,29.77,NNE,23,1.2,4.2,76,0.00,,,0.03,WUHU216TE923,2013-03-12 07:20:00,
2013-03-12 03:25:00,42.3,35.3,29.77,NW,315,1.6,4.2,76,0.00,,,0.03,WUHU216TE923,2013-03-12 07:25:00,
2013-03-12 03:30:00,42.3,35.3,29.80,NNE,23,1.4,1.9,76,0.00,,,0.03,WUHU216TE923,2013-03-12 07:30:00,
2013-03-12 03:35:00,42.1,35.1,29.80,NNE,23,0.9,1.9,76,0.00,,,0.03,WUHU216TE923,2013-03-12 07:35:00,
2013-03-12 03:40:00,42.1,35.1,29.80,NNE,23,1.4,2.6,76,0.00,,,0.03,WUHU216TE923,2013-03-12 07:40:00,
2013-03-12 03:45:00,42.1,35.1,29.80,NE,45,1.9,4.0,76,0.00,,,0.03,WUHU216TE923,2013-03-12 07:45:00,
2013-03-12 03:50:00,41.9,34.9,29.77,NW,315,2.5,4.0,76,0.00,,,0.03,WUHU216TE923,2013-03-12 07:50:00,
2013-03-12 03:55:00,41.7,34.4,29.77,NW,315,2.5,2.5,75,0.00,,,0.03,WUHU216TE923,2013-03-12 07:55:00,
2013-03-12 04:00:00,41.5,34.2,29.77,NNW,338,2.5,3.2,75,0.00,,,0.03,WUHU216TE923,2013-03-12 08:00:00,
2013-03-12 04:05:00,41.4,34.1,29.77,NNW,338,2.0,3.2,75,0.00,,,0.03,WUHU216TE923,2013-03-12 08:05:00,
2013-03-12 04:10:00,41.2,33.9,29.78,NNW,338,2.2,3.0,75,0.00,,,0.03,WUHU216TE923,2013-03-12 08:10:00,
2013-03-12 04:15:00,41.2,33.9,29.78,NNE,23,2.4,3.0,75,0.00,,,0.03,WUHU216TE923,2013-03-12 08:15:00,
2013-03-12 04:20:00,41.0,33.7,29.78,NNE,23,2.9,5.5,75,0.00,,,0.03,WUHU216TE923,2013-03-12 08:20:00,
2013-03-12 04:25:00,40.8,33.9,29.78,NNE,23,2.6,5.5,76,0.00,,,0.03,WUHU216TE923,2013-03-12 08:25:00,
2013-03-12 04:30:00,40.6,33.4,29.78,NNW,338,2.2,3.9,75,0.00,,,0.03,WUHU216TE923,2013-03-12 08:30:00,
2013-03-12 04:35:00,40.5,33.6,29.78,North,0,2.2,3.9,76,0.00,,,0.03,WUHU216TE923,2013-03-12 08:35:00,
2013-03-12 04:40:00,40.5,33.3,29.78,NW,315,2.2,2.6,75,0.00,,,0.03,WUHU216TE923,2013-03-12 08:40:00,
2013-03-12 04:45:00,40.3,33.1,29.78,NNE,23,2.1,5.5,75,0.00,,,0.03,WUHU216TE923,2013-03-12 08:45:00,
2013-03-12 04:50:00,40.1,32.9,29.78,NNE,23,2.4,5.5,75,0.00,,,0.03,WUHU216TE923,2013-03-12 08:50:00,
2013-03-12 04:55:00,39.9,32.7,29.78,NNE,23,3.3,7.2,75,0.00,,,0.03,WUHU216TE923,2013-03-12 08:55:00,
2013-03-12 05:00:00,39.9,32.7,29.78,North,0,3.5,7.2,75,0.00,,,0.03,WUHU216TE923,2013-03-12 09:00:00,
2013-03-12 05:05:00,39.6,32.1,29.78,NW,315,3.2,4.8,74,0.00,,,0.03,WUHU216TE923,2013-03-12 09:05:00,
2013-03-12 05:11:00,39.6,32.1,29.79,North,0,1.9,2.8,74,0.00,,,0.03,WUHU216TE923,2013-03-12 09:11:00,
2013-03-12 05:15:00,39.4,31.9,29.79,NNE,23,1.5,2.0,74,0.00,,,0.03,WUHU216TE923,2013-03-12 09:15:00,
2013-03-12 05:21:00,39.4,32.2,29.79,NNW,338,1.4,2.0,75,0.00,,,0.03,WUHU216TE923,2013-03-12 09:21:00,
2013-03-12 05:25:00,39.4,32.2,29.78,NW,315,1.7,2.0,75,0.00,,,0.03,WUHU216TE923,2013-03-12 09:25:00,
2013-03-12 05:31:00,39.2,32.0,29.78,NNE,23,2.1,3.3,75,0.00,,,0.03,WUHU216TE923,2013-03-12 09:31:00,
2013-03-12 05:35:00,39.2,32.0,29.78,NNW,338,1.9,3.3,75,0.00,,,0.03,WUHU216TE923,2013-03-12 09:35:00,
2013-03-12 05:41:00,39.2,32.0,29.78,ENE,68,1.7,2.4,75,0.00,,,0.03,WUHU216TE923,2013-03-12 09:41:00,
2013-03-12 05:45:00,39.2,32.0,29.78,NNW,338,1.3,2.4,75,0.00,,,0.03,WUHU216TE923,2013-03-12 09:45:00,
2013-03-12 05:55:00,39.0,31.8,29.78,North,0,1.7,4.2,75,0.00,,,0.03,WUHU216TE923,2013-03-12 09:55:00,
2013-03-12 06:05:00,39.0,31.8,29.80,NNE,23,2.5,4.9,75,0.00,,,0.03,WUHU216TE923,2013-03-12 10:05:00,
2013-03-12 06:11:00,39.0,31.8,29.80,NNE,23,2.5,2.5,75,0.00,,,0.03,WUHU216TE923,2013-03-12 10:11:00,
2013-03-12 06:15:00,38.8,31.6,29.80,NNE,23,1.2,2.5,75,0.00,,,0.03,WUHU216TE923,2013-03-12 10:15:00,
2013-03-12 06:21:00,38.8,31.6,29.80,NNE,23,1.2,2.9,75,0.00,,,0.03,WUHU216TE923,2013-03-12 10:21:00,
2013-03-12 06:25:00,38.7,31.5,29.80,NW,315,1.2,2.9,75,0.00,,,0.03,WUHU216TE923,2013-03-12 10:25:00,
2013-03-12 06:31:00,38.7,31.2,29.80,NW,315,0.8,1.6,74,0.00,,,0.03,WUHU216TE923,2013-03-12 10:31:00,
2013-03-12 06:35:00,38.5,31.0,29.80,NNE,23,0.8,2.0,74,0.00,,,0.03,WUHU216TE923,2013-03-12 10:35:00,
2013-03-12 06:41:00,38.5,31.0,29.80,NW,315,0.7,2.0,74,0.00,,,0.03,WUHU216TE923,2013-03-12 10:41:00,
2013-03-12 06:45:00,38.5,31.0,29.81,ESE,113,0.7,1.1,74,0.00,,,0.03,WUHU216TE923,2013-03-12 10:45:00,
2013-03-12 06:51:00,38.3,30.8,29.81,NE,45,0.8,0.8,74,0.00,,,0.03,WUHU216TE923,2013-03-12 10:51:00,
2013-03-12 06:55:00,38.5,31.0,29.81,NNW,338,1.5,2.6,74,0.00,,,0.03,WUHU216TE923,2013-03-12 10:55:00,
2013-03-12 07:05:00,38.3,30.8,29.84,NNW,338,1.9,1.9,74,0.00,,,0.03,WUHU216TE923,2013-03-12 11:05:00,
2013-03-12 07:11:00,38.3,30.8,29.84,NW,315,1.4,1.9,74,0.00,,,0.03,WUHU216TE923,2013-03-12 11:11:00,
2013-03-12 07:15:00,38.1,30.3,29.84,NNE,23,1.6,2.4,73,0.00,,,0.03,WUHU216TE923,2013-03-12 11:15:00,
2013-03-12 07:21:00,38.1,30.3,29.84,NW,315,1.9,2.4,73,0.00,,,0.03,WUHU216TE923,2013-03-12 11:21:00,
2013-03-12 07:25:00,37.9,30.1,29.84,NNE,23,1.0,1.9,73,0.00,,,0.03,WUHU216TE923,2013-03-12 11:25:00,
2013-03-12 07:31:00,37.9,30.1,29.84,NNE,23,0.9,1.4,73,0.00,,,0.03,WUHU216TE923,2013-03-12 11:31:00,
2013-03-12 07:35:00,37.9,30.1,29.84,NNE,23,1.1,2.2,73,0.00,,,0.03,WUHU216TE923,2013-03-12 11:35:00,
2013-03-12 07:41:00,37.8,29.6,29.84,North,0,1.7,2.7,72,0.00,,,0.03,WUHU216TE923,2013-03-12 11:41:00,
2013-03-12 07:45:00,37.8,29.6,29.84,ENE,68,1.7,2.7,72,0.00,,,0.03,WUHU216TE923,2013-03-12 11:45:00,
2013-03-12 07:51:00,37.6,29.5,29.84,NE,45,1.1,1.7,72,0.00,,,0.03,WUHU216TE923,2013-03-12 11:51:00,
2013-03-12 07:55:00,37.6,29.5,29.84,NE,45,0.8,1.1,72,0.00,,,0.03,WUHU216TE923,2013-03-12 11:55:00,
2013-03-12 08:05:00,37.6,29.1,29.84,NNE,23,1.4,2.1,71,0.00,,,0.03,WUHU216TE923,2013-03-12 12:05:00,
2013-03-12 08:15:00,37.6,28.8,29.84,ENE,68,1.9,2.6,70,0.00,,,0.03,WUHU216TE923,2013-03-12 12:15:00,
2013-03-12 08:27:00,37.4,28.2,29.84,ESE,113,1.4,2.3,69,0.00,,,0.03,WUHU216TE923,2013-03-12 12:27:00,
2013-03-12 08:32:00,37.4,28.2,29.84,ESE,113,1.4,2.3,69,0.00,,,0.03,WUHU216TE923,2013-03-12 12:32:00,
2013-03-12 08:37:00,37.2,28.0,29.84,NNE,23,2.0,2.3,69,0.00,,,0.03,WUHU216TE923,2013-03-12 12:37:00,
2013-03-12 08:42:00,37.2,28.0,29.84,NNE,23,2.0,2.3,69,0.00,,,0.03,WUHU216TE923,2013-03-12 12:42:00,
2013-03-12 08:47:00,37.2,28.0,29.83,NNE,23,1.9,2.2,69,0.00,,,0.03,WUHU216TE923,2013-03-12 12:47:00,
2013-03-12 08:52:00,37.2,28.0,29.83,NNE,23,1.9,2.2,69,0.00,,,0.03,WUHU216TE923,2013-03-12 12:52:00,
2013-03-12 08:57:00,37.2,28.0,29.83,NNW,338,2.1,6.9,69,0.00,,,0.03,WUHU216TE923,2013-03-12 12:57:00,
2013-03-12 09:02:00,37.2,28.0,29.83,NNW,338,2.1,6.9,69,0.00,,,0.03,WUHU216TE923,2013-03-12 13:02:00,
2013-03-12 09:07:00,37.4,27.9,29.87,NNE,23,3.6,5.5,68,0.00,,,0.03,WUHU216TE923,2013-03-12 13:07:00,
2013-03-12 09:12:00,37.4,27.5,29.87,NW,315,3.4,5.5,67,0.00,,,0.03,WUHU216TE923,2013-03-12 13:12:00,
2013-03-12 09:17:00,37.4,27.5,29.87,North,0,3.0,4.0,67,0.00,,,0.03,WUHU216TE923,2013-03-12 13:17:00,
2013-03-12 09:22:00,37.8,27.5,29.87,NNE,23,2.7,3.2,66,0.00,,,0.03,WUHU216TE923,2013-03-12 13:22:00,
2013-03-12 09:27:00,37.9,27.6,29.86,NNE,23,2.6,3.4,66,0.00,,,0.03,WUHU216TE923,2013-03-12 13:27:00,
2013-03-12 09:32:00,38.1,27.4,29.86,North,0,2.6,3.4,65,0.00,,,0.03,WUHU216TE923,2013-03-12 13:32:00,
2013-03-12 09:37:00,38.3,27.6,29.86,NNE,23,2.3,3.2,65,0.00,,,0.03,WUHU216TE923,2013-03-12 13:37:00,
2013-03-12 09:42:00,38.3,27.6,29.86,NNE,23,2.3,3.2,65,0.00,,,0.03,WUHU216TE923,2013-03-12 13:42:00,
2013-03-12 09:47:00,38.1,27.1,29.87,NNE,23,2.7,4.7,64,0.00,,,0.03,WUHU216TE923,2013-03-12 13:47:00,
2013-03-12 09:52:00,38.1,26.3,29.87,South,180,3.0,4.7,62,0.00,,,0.03,WUHU216TE923,2013-03-12 13:52:00,
2013-03-12 09:57:00,37.9,24.9,29.87,NE,45,3.0,3.8,59,0.00,,,0.03,WUHU216TE923,2013-03-12 13:57:00,
2013-03-12 10:02:00,38.3,25.7,29.87,NNE,23,3.4,3.8,60,0.00,,,0.03,WUHU216TE923,2013-03-12 14:02:00,
2013-03-12 10:07:00,39.6,26.5,29.88,NE,45,3.0,3.8,59,0.00,,,0.03,WUHU216TE923,2013-03-12 14:07:00,
2013-03-12 10:12:00,40.8,27.6,29.88,NE,45,2.9,3.0,59,0.00,,,0.03,WUHU216TE923,2013-03-12 14:12:00,
2013-03-12 10:17:00,41.7,28.1,29.88,NE,45,2.6,2.9,58,0.00,,,0.03,WUHU216TE923,2013-03-12 14:17:00,
2013-03-12 10:22:00,41.7,27.6,29.88,NNE,23,2.8,3.8,57,0.00,,,0.03,WUHU216TE923,2013-03-12 14:22:00,
2013-03-12 10:27:00,41.9,27.4,29.88,NNW,338,3.3,4.0,56,0.00,,,0.03,WUHU216TE923,2013-03-12 14:27:00,
2013-03-12 10:32:00,41.9,27.4,29.88,NNW,338,3.3,4.0,56,0.00,,,0.03,WUHU216TE923,2013-03-12 14:32:00,
2013-03-12 10:37:00,44.2,27.7,29.88,NW,315,3.1,5.8,52,0.00,,,0.03,WUHU216TE923,2013-03-12 14:37:00,
2013-03-12 10:42:00,44.8,27.2,29.88,WNW,293,3.3,5.8,50,0.00,,,0.03,WUHU216TE923,2013-03-12 14:42:00,
2013-03-12 10:47:00,45.3,27.7,29.89,NE,45,3.3,5.7,50,0.00,,,0.03,WUHU216TE923,2013-03-12 14:47:00,
2013-03-12 10:52:00,45.1,27.0,29.89,NE,45,3.1,4.4,49,0.00,,,0.03,WUHU216TE923,2013-03-12 14:52:00,
2013-03-12 10:57:00,44.4,26.9,29.89,North,0,2.8,4.2,50,0.00,,,0.03,WUHU216TE923,2013-03-12 14:57:00,
2013-03-12 11:02:00,44.2,26.7,29.89,WNW,293,2.9,4.2,50,0.00,,,0.03,WUHU216TE923,2013-03-12 15:02:00,
2013-03-12 11:07:00,43.5,26.5,29.90,NNW,338,2.6,3.0,51,0.00,,,0.03,WUHU216TE923,2013-03-12 15:07:00,
2013-03-12 11:12:00,44.4,27.4,29.90,NNW,338,2.4,4.4,51,0.00,,,0.03,WUHU216TE923,2013-03-12 15:12:00,
2013-03-12 11:17:00,45.5,27.9,29.90,NNW,338,2.6,4.4,50,0.00,,,0.03,WUHU216TE923,2013-03-12 15:17:00,
2013-03-12 11:22:00,46.6,28.4,29.90,WNW,293,2.8,4.7,49,0.00,,,0.03,WUHU216TE923,2013-03-12 15:22:00,
2013-03-12 11:28:00,46.4,27.7,29.92,NE,45,3.3,5.8,48,0.00,,,0.03,WUHU216TE923,2013-03-12 15:28:00,
2013-03-12 11:33:00,46.8,28.6,29.92,NNE,23,3.3,5.8,49,0.00,,,0.03,WUHU216TE923,2013-03-12 15:33:00,
2013-03-12 11:38:00,46.2,27.0,29.92,ENE,68,3.3,4.2,47,0.00,,,0.03,WUHU216TE923,2013-03-12 15:38:00,
2013-03-12 11:43:00,46.0,26.3,29.92,NNE,23,3.1,4.7,46,0.00,,,0.03,WUHU216TE923,2013-03-12 15:43:00,
2013-03-12 11:48:00,47.7,28.9,29.91,East,90,3.1,4.7,48,0.00,,,0.03,WUHU216TE923,2013-03-12 15:48:00,
2013-03-12 11:53:00,47.7,28.4,29.91,NNE,23,2.6,3.5,47,0.00,,,0.03,WUHU216TE923,2013-03-12 15:53:00,
2013-03-12 11:58:00,48.2,28.8,29.91,ENE,68,2.2,4.1,47,0.00,,,0.03,WUHU216TE923,2013-03-12 15:58:00,
2013-03-12 12:03:00,47.5,28.2,29.91,NNE,23,2.9,4.1,47,0.00,,,0.03,WUHU216TE923,2013-03-12 16:03:00,
2013-03-12 12:08:00,47.8,27.9,29.90,North,0,2.8,2.9,46,0.00,,,0.03,WUHU216TE923,2013-03-12 16:08:00,
2013-03-12 12:13:00,47.8,27.9,29.90,North,0,2.8,2.8,46,0.00,,,0.03,WUHU216TE923,2013-03-12 16:13:00,
2013-03-12 12:18:00,49.3,28.2,29.90,ENE,68,2.5,2.8,44,0.00,,,0.03,WUHU216TE923,2013-03-12 16:18:00,
2013-03-12 12:23:00,49.8,28.6,29.90,NNE,23,2.1,2.5,44,0.00,,,0.03,WUHU216TE923,2013-03-12 16:23:00,
2013-03-12 12:28:00,50.5,29.3,29.91,NNE,23,2.4,5.3,44,0.00,,,0.03,WUHU216TE923,2013-03-12 16:28:00,
2013-03-12 12:33:00,51.3,29.4,29.91,ESE,113,2.9,5.3,43,0.00,,,0.03,WUHU216TE923,2013-03-12 16:33:00,
2013-03-12 12:38:00,50.4,28.6,29.91,NNE,23,2.8,4.4,43,0.00,,,0.03,WUHU216TE923,2013-03-12 16:38:00,
2013-03-12 12:43:00,51.8,29.9,29.91,NE,45,2.4,4.4,43,0.00,,,0.03,WUHU216TE923,2013-03-12 16:43:00,
2013-03-12 12:48:00,52.3,29.7,29.91,NNE,23,2.8,3.8,42,0.00,,,0.03,WUHU216TE923,2013-03-12 16:48:00,
2013-03-12 12:53:00,52.2,28.4,29.91,NNW,338,2.7,6.5,40,0.00,,,0.03,WUHU216TE923,2013-03-12 16:53:00,
2013-03-12 12:58:00,52.3,27.9,29.91,NE,45,2.5,6.5,39,0.00,,,0.03,WUHU216TE923,2013-03-12 16:58:00,
2013-03-12 13:03:00,53.1,29.2,29.91,NE,45,2.4,3.2,40,0.00,,,0.03,WUHU216TE923,2013-03-12 17:03:00,
2013-03-12 13:08:00,54.0,28.8,29.91,NNE,23,2.7,3.2,38,0.00,,,0.03,WUHU216TE923,2013-03-12 17:08:00,
2013-03-12 13:13:00,54.0,28.8,29.91,NNW,338,2.8,4.0,38,0.00,,,0.03,WUHU216TE923,2013-03-12 17:13:00,
2013-03-12 13:18:00,54.9,28.9,29.91,NNW,338,2.5,4.0,37,0.00,,,0.03,WUHU216TE923,2013-03-12 17:18:00,
2013-03-12 13:23:00,55.6,29.5,29.91,NNE,23,3.0,3.0,37,0.00,,,0.03,WUHU216TE923,2013-03-12 17:23:00,
2013-03-12 13:28:00,54.5,28.5,29.91,NE,45,2.8,3.0,37,0.00,,,0.03,WUHU216TE923,2013-03-12 17:28:00,
2013-03-12 13:33:00,54.5,27.9,29.91,NW,315,2.7,2.8,36,0.00,,,0.03,WUHU216TE923,2013-03-12 17:33:00,
2013-03-12 13:38:00,54.9,28.2,29.91,NNE,23,2.6,2.7,36,0.00,,,0.03,WUHU216TE923,2013-03-12 17:38:00,
2013-03-12 13:43:00,55.0,28.3,29.91,North,0,2.2,3.4,36,0.00,,,0.03,WUHU216TE923,2013-03-12 17:43:00,
2013-03-12 13:48:00,56.3,28.8,29.91,NE,45,2.4,4.2,35,0.00,,,0.03,WUHU216TE923,2013-03-12 17:48:00,
2013-03-12 13:53:00,56.5,28.2,29.91,North,0,3.0,4.3,34,0.00,,,0.03,WUHU216TE923,2013-03-12 17:53:00,
2013-03-12 13:58:00,55.9,27.7,29.91,NNE,23,3.0,4.3,34,0.00,,,0.03,WUHU216TE923,2013-03-12 17:58:00,
2013-03-12 14:03:00,56.8,28.5,29.91,NE,45,2.9,3.0,34,0.00,,,0.03,WUHU216TE923,2013-03-12 18:03:00,
2013-03-12 14:08:00,56.3,25.8,29.92,NNE,23,3.1,3.7,31,0.00,,,0.03,WUHU216TE923,2013-03-12 18:08:00,
2013-03-12 14:13:00,56.8,27.0,29.92,NNE,23,3.0,6.4,32,0.00,,,0.03,WUHU216TE923,2013-03-12 18:13:00,
2013-03-12 14:18:00,56.8,26.3,29.92,NE,45,3.1,6.4,31,0.00,,,0.03,WUHU216TE923,2013-03-12 18:18:00,
2013-03-12 14:23:00,57.2,26.6,29.92,NNE,23,2.9,4.7,31,0.00,,,0.03,WUHU216TE923,2013-03-12 18:23:00,
2013-03-12 14:28:00,57.2,25.8,29.90,NE,45,3.2,6.9,30,0.00,,,0.03,WUHU216TE923,2013-03-12 18:28:00,
2013-03-12 14:33:00,57.9,26.4,29.90,NNE,23,3.6,6.9,30,0.00,,,0.03,WUHU216TE923,2013-03-12 18:33:00,
2013-03-12 14:38:00,58.1,26.6,29.90,SSW,203,3.7,3.7,30,0.00,,,0.03,WUHU216TE923,2013-03-12 18:38:00,
2013-03-12 14:43:00,58.8,27.2,29.90,NNE,23,3.7,6.4,30,0.00,,,0.03,WUHU216TE923,2013-03-12 18:43:00,
2013-03-12 14:48:00,56.3,25.0,29.91,NW,315,3.7,6.4,30,0.00,,,0.03,WUHU216TE923,2013-03-12 18:48:00,
2013-03-12 14:53:00,56.8,27.0,29.91,NNW,338,3.5,4.9,32,0.00,,,0.03,WUHU216TE923,2013-03-12 18:53:00,
2013-03-12 14:58:00,56.5,26.0,29.91,West,270,2.7,4.4,31,0.00,,,0.03,WUHU216TE923,2013-03-12 18:58:00,
2013-03-12 15:04:00,56.3,25.8,29.91,ESE,113,2.2,2.7,31,0.00,,,0.03,WUHU216TE923,2013-03-12 19:04:00,
2013-03-12 15:08:00,56.1,25.6,29.89,South,180,1.9,4.5,31,0.00,,,0.03,WUHU216TE923,2013-03-12 19:08:00,
2013-03-12 15:14:00,56.5,27.5,29.89,NW,315,2.6,4.5,33,0.00,,,0.03,WUHU216TE923,2013-03-12 19:14:00,
2013-03-12 15:19:00,56.3,25.8,29.89,NNE,23,3.0,4.4,31,0.00,,,0.03,WUHU216TE923,2013-03-12 19:19:00,
2013-03-12 15:24:00,55.8,25.4,29.89,SSW,203,2.7,5.5,31,0.00,,,0.03,WUHU216TE923,2013-03-12 19:24:00,
2013-03-12 15:29:00,55.0,26.9,29.89,NE,45,2.4,5.5,34,0.00,,,0.03,WUHU216TE923,2013-03-12 19:29:00,
2013-03-12 15:34:00,55.6,26.7,29.89,NNW,338,2.1,2.4,33,0.00,,,0.03,WUHU216TE923,2013-03-12 19:34:00,
2013-03-12 15:39:00,55.8,25.4,29.89,ENE,68,2.3,3.9,31,0.00,,,0.03,WUHU216TE923,2013-03-12 19:39:00,
2013-03-12 15:41:00,55.2,27.1,29.89,NNE,23,2.3,3.6,34,0.00,,,0.03,WUHU216TE923,2013-03-12 19:41:00,
2013-03-12 15:44:00,55.2,27.1,29.89,NNE,23,2.3,3.9,34,0.00,,,0.03,WUHU216TE923,2013-03-12 19:44:00,
2013-03-12 15:49:00,55.2,27.1,29.89,NNE,23,2.3,3.6,34,0.00,,,0.03,WUHU216TE923,2013-03-12 19:49:00,
2013-03-12 15:54:00,55.8,26.9,29.90,NNE,23,2.6,4.5,33,0.00,,,0.03,WUHU216TE923,2013-03-12 19:54:00,
2013-03-12 15:59:00,55.2,27.1,29.90,NNE,23,2.9,5.4,34,0.00,,,0.03,WUHU216TE923,2013-03-12 19:59:00,
2013-03-12 16:04:00,55.4,26.5,29.90,NW,315,2.5,5.4,33,0.00,,,0.03,WUHU216TE923,2013-03-12 20:04:00,
2013-03-12 16:08:00,55.0,26.9,29.89,North,0,2.8,5.5,34,0.00,,,0.03,WUHU216TE923,2013-03-12 20:08:00,
2013-03-12 16:14:00,55.2,27.8,29.89,ENE,68,2.1,5.5,35,0.00,,,0.03,WUHU216TE923,2013-03-12 20:14:00,
2013-03-12 16:19:00,55.2,27.8,29.89,NW,315,2.2,6.8,35,0.00,,,0.03,WUHU216TE923,2013-03-12 20:19:00,
2013-03-12 16:24:00,55.2,26.4,29.89,ENE,68,2.5,6.8,33,0.00,,,0.03,WUHU216TE923,2013-03-12 20:24:00,
2013-03-12 16:29:00,54.9,26.1,29.89,SW,225,2.9,3.6,33,0.00,,,0.03,WUHU216TE923,2013-03-12 20:29:00,
2013-03-12 16:34:00,55.2,27.1,29.89,NNE,23,2.9,3.2,34,0.00,,,0.03,WUHU216TE923,2013-03-12 20:34:00,
2013-03-12 16:39:00,55.2,26.4,29.89,NNW,338,3.2,3.4,33,0.00,,,0.03,WUHU216TE923,2013-03-12 20:39:00,
2013-03-12 16:44:00,54.5,25.7,29.89,NE,45,3.2,3.4,33,0.00,,,0.03,WUHU216TE923,2013-03-12 20:44:00,
2013-03-12 16:49:00,54.9,26.8,29.86,North,0,2.6,3.9,34,0.00,,,0.03,WUHU216TE923,2013-03-12 20:49:00,
2013-03-12 16:54:00,54.9,26.1,29.86,NW,315,2.4,3.9,33,0.00,,,0.03,WUHU216TE923,2013-03-12 20:54:00,
2013-03-12 16:59:00,54.3,24.8,29.86,NE,45,3.0,4.2,32,0.00,,,0.03,WUHU216TE923,2013-03-12 20:59:00,
2013-03-12 17:04:00,53.8,24.4,29.86,NE,45,3.2,4.2,32,0.00,,,0.03,WUHU216TE923,2013-03-12 21:04:00,
2013-03-12 17:09:00,54.0,25.3,29.89,NW,315,2.9,3.6,33,0.00,,,0.03,WUHU216TE923,2013-03-12 21:09:00,
2013-03-12 17:14:00,53.8,25.1,29.89,SW,225,2.8,3.6,33,0.00,,,0.03,WUHU216TE923,2013-03-12 21:14:00,
2013-03-12 17:19:00,53.8,25.1,29.89,NE,45,2.7,5.8,33,0.00,,,0.03,WUHU216TE923,2013-03-12 21:19:00,
2013-03-12 17:24:00,53.6,24.9,29.89,NE,45,3.4,5.8,33,0.00,,,0.03,WUHU216TE923,2013-03-12 21:24:00,
2013-03-12 17:29:00,53.2,24.6,29.90,NE,45,4.0,5.6,33,0.00,,,0.03,WUHU216TE923,2013-03-12 21:29:00,
2013-03-12 17:34:00,53.2,24.6,29.90,NNE,23,4.1,5.0,33,0.00,,,0.03,WUHU216TE923,2013-03-12 21:34:00,
2013-03-12 17:39:00,53.1,25.2,29.90,North,0,4.1,7.6,34,0.00,,,0.03,WUHU216TE923,2013-03-12 21:39:00,
2013-03-12 17:44:00,52.7,24.9,29.90,NE,45,3.7,7.6,34,0.00,,,0.03,WUHU216TE923,2013-03-12 21:44:00,
2013-03-12 17:49:00,52.7,24.9,29.90,NW,315,3.6,6.9,34,0.00,,,0.03,WUHU216TE923,2013-03-12 21:49:00,
2013-03-12 17:54:00,52.5,24.0,29.90,NW,315,3.7,6.9,33,0.00,,,0.03,WUHU216TE923,2013-03-12 21:54:00,
2013-03-12 17:59:00,52.3,23.8,29.90,NNE,23,4.2,6.9,33,0.00,,,0.03,WUHU216TE923,2013-03-12 21:59:00,
2013-03-12 18:04:00,52.2,23.7,29.90,NNW,338,4.2,5.3,33,0.00,,,0.03,WUHU216TE923,2013-03-12 22:04:00,
2013-03-12 18:09:00,51.8,23.4,29.91,NNW,338,3.1,4.9,33,0.00,,,0.03,WUHU216TE923,2013-03-12 22:09:00,
2013-03-12 18:14:00,51.8,24.1,29.91,NNE,23,2.3,3.6,34,0.00,,,0.03,WUHU216TE923,2013-03-12 22:14:00,
2013-03-12 18:19:00,51.6,23.9,29.91,NNE,23,2.7,3.6,34,0.00,,,0.03,WUHU216TE923,2013-03-12 22:19:00,
2013-03-12 18:24:00,51.4,23.7,29.91,NNE,23,2.9,4.2,34,0.00,,,0.03,WUHU216TE923,2013-03-12 22:24:00,
2013-03-12 18:29:00,51.3,23.6,29.92,NNE,23,2.7,4.2,34,0.00,,,0.03,WUHU216TE923,2013-03-12 22:29:00,
2013-03-12 18:34:00,51.1,23.5,29.92,NE,45,3.0,4.5,34,0.00,,,0.03,WUHU216TE923,2013-03-12 22:34:00,
2013-03-12 18:39:00,50.9,23.3,29.92,NNE,23,2.6,4.5,34,0.00,,,0.03,WUHU216TE923,2013-03-12 22:39:00,
2013-03-12 18:44:00,50.7,23.1,29.92,NNE,23,2.7,4.2,34,0.00,,,0.03,WUHU216TE923,2013-03-12 22:44:00,
2013-03-12 18:49:00,50.5,22.9,29.90,NNE,23,2.7,4.2,34,0.00,,,0.03,WUHU216TE923,2013-03-12 22:49:00,
2013-03-12 18:54:00,50.5,22.9,29.90,NNW,338,2.1,3.2,34,0.00,,,0.03,WUHU216TE923,2013-03-12 22:54:00,
2013-03-12 18:59:00,50.2,22.7,29.90,NNW,338,2.3,5.7,34,0.00,,,0.03,WUHU216TE923,2013-03-12 22:59:00,
2013-03-12 19:04:00,50.2,23.4,29.90,NNW,338,2.4,5.7,35,0.00,,,0.03,WUHU216TE923,2013-03-12 23:04:00,
2013-03-12 19:09:00,49.8,23.0,29.92,NW,315,1.7,2.4,35,0.00,,,0.03,WUHU216TE923,2013-03-12 23:09:00,
2013-03-12 19:14:00,49.6,22.8,29.92,North,0,1.7,2.1,35,0.00,,,0.03,WUHU216TE923,2013-03-12 23:14:00,
2013-03-12 19:19:00,49.3,22.6,29.92,NNE,23,2.1,4.0,35,0.00,,,0.03,WUHU216TE923,2013-03-12 23:19:00,
2013-03-12 19:24:00,49.3,22.6,29.92,NNW,338,1.9,4.0,35,0.00,,,0.03,WUHU216TE923,2013-03-12 23:24:00,
2013-03-12 19:29:00,48.9,22.2,29.92,NNW,338,1.4,1.9,35,0.00,,,0.03,WUHU216TE923,2013-03-12 23:29:00,
2013-03-12 19:34:00,48.6,22.6,29.92,NNE,23,1.1,2.9,36,0.00,,,0.03,WUHU216TE923,2013-03-12 23:34:00,
2013-03-12 19:39:00,48.2,22.3,29.92,NNW,338,1.2,2.9,36,0.00,,,0.03,WUHU216TE923,2013-03-12 23:39:00,
2013-03-12 19:44:00,48.0,23.4,29.92,NE,45,1.1,1.2,38,0.00,,,0.03,WUHU216TE923,2013-03-12 23:44:00,
2013-03-12 19:49:00,47.5,22.9,29.93,North,0,0.9,1.1,38,0.00,,,0.03,WUHU216TE923,2013-03-12 23:49:00,
2013-03-12 19:54:00,47.3,23.4,29.93,NE,45,0.9,1.1,39,0.00,,,0.03,WUHU216TE923,2013-03-12 23:54:00,
2013-03-12 19:59:00,46.9,23.0,29.93,NE,45,0.3,1.1,39,0.00,,,0.03,WUHU216TE923,2013-03-12 23:59:00,
2013-03-12 20:04:00,46.6,23.4,29.93,NE,45,0.2,0.3,40,0.00,,,0.03,WUHU216TE923,2013-03-13 00:04:00,
2013-03-12 20:09:00,46.2,23.6,29.94,NE,45,0.0,0.2,41,0.00,,,0.03,WUHU216TE923,2013-03-13 00:09:00,
2013-03-12 20:14:00,45.9,23.9,29.94,NE,45,0.0,0.0,42,0.00,,,0.03,WUHU216TE923,2013-03-13 00:14:00,
2013-03-12 20:19:00,45.5,24.1,29.94,NE,45,0.0,0.0,43,0.00,,,0.03,WUHU216TE923,2013-03-13 00:19:00,
2013-03-12 20:24:00,45.3,24.5,29.94,NE,45,0.0,0.0,44,0.00,,,0.03,WUHU216TE923,2013-03-13 00:24:00,
2013-03-12 20:29:00,45.0,24.8,29.94,NE,45,0.0,0.0,45,0.00,,,0.03,WUHU216TE923,2013-03-13 00:29:00,
2013-03-12 20:34:00,44.8,25.2,29.94,NE,45,0.0,0.0,46,0.00,,,0.03,WUHU216TE923,2013-03-13 00:34:00,
2013-03-12 20:39:00,44.4,25.3,29.94,NE,45,0.0,0.0,47,0.00,,,0.03,WUHU216TE923,2013-03-13 00:39:00,
2013-03-12 20:44:00,44.1,25.6,29.94,NE,45,0.0,0.0,48,0.00,,,0.03,WUHU216TE923,2013-03-13 00:44:00,
2013-03-12 20:49:00,43.7,25.2,29.95,NE,45,0.0,0.0,48,0.00,,,0.03,WUHU216TE923,2013-03-13 00:49:00,
2013-03-12 20:54:00,43.5,25.0,29.95,NE,45,0.0,0.0,48,0.00,,,0.03,WUHU216TE923,2013-03-13 00:54:00,
2013-03-12 20:55:00,43.2,25.3,29.95,NE,45,0.0,0.0,49,0.00,,,0.03,WUHU216TE923,2013-03-13 00:55:00,
2013-03-12 21:01:00,43.0,25.1,29.95,NE,45,0.0,0.0,49,0.00,,,0.03,WUHU216TE923,2013-03-13 01:01:00,
2013-03-12 21:05:00,42.6,25.2,29.96,NW,315,0.0,0.0,50,0.00,,,0.03,WUHU216TE923,2013-03-13 01:05:00,
2013-03-12 21:11:00,42.4,25.5,29.96,NW,315,0.0,0.0,51,0.00,,,0.03,WUHU216TE923,2013-03-13 01:11:00,
2013-03-12 21:15:00,42.1,25.2,29.96,NW,315,0.0,0.0,51,0.00,,,0.03,WUHU216TE923,2013-03-13 01:15:00,
2013-03-12 21:25:00,41.9,25.5,29.96,NW,315,0.0,0.0,52,0.00,,,0.03,WUHU216TE923,2013-03-13 01:25:00,
2013-03-12 21:35:00,41.5,25.6,29.96,NW,315,0.0,0.0,53,0.00,,,0.03,WUHU216TE923,2013-03-13 01:35:00,
2013-03-12 21:41:00,41.4,25.5,29.96,NW,315,0.0,0.0,53,0.00,,,0.03,WUHU216TE923,2013-03-13 01:41:00,
2013-03-12 21:45:00,41.2,25.8,29.97,NW,315,0.0,0.0,54,0.00,,,0.03,WUHU216TE923,2013-03-13 01:45:00,
2013-03-12 21:51:00,40.8,25.4,29.97,NW,315,0.0,0.0,54,0.00,,,0.03,WUHU216TE923,2013-03-13 01:51:00,
2013-03-12 21:55:00,40.5,25.2,29.97,North,0,0.0,0.0,54,0.00,,,0.03,WUHU216TE923,2013-03-13 01:55:00,
2013-03-12 22:01:00,40.3,25.0,29.97,North,0,0.0,0.0,54,0.00,,,0.03,WUHU216TE923,2013-03-13 02:01:00,
2013-03-12 22:05:00,40.1,24.8,29.96,North,0,0.0,0.0,54,0.00,,,0.03,WUHU216TE923,2013-03-13 02:05:00,
2013-03-12 22:11:00,39.9,24.6,29.96,North,0,0.0,0.0,54,0.00,,,0.03,WUHU216TE923,2013-03-13 02:11:00,
2013-03-12 22:15:00,39.7,24.9,29.96,North,0,0.0,0.0,55,0.00,,,0.03,WUHU216TE923,2013-03-13 02:15:00,
2013-03-12 22:21:00,39.6,24.8,29.96,North,0,0.0,0.0,55,0.00,,,0.03,WUHU216TE923,2013-03-13 02:21:00,
2013-03-12 22:25:00,39.4,24.6,29.97,North,0,0.0,0.0,55,0.00,,,0.03,WUHU216TE923,2013-03-13 02:25:00,
2013-03-12 22:35:00,39.0,24.7,29.97,North,0,0.0,0.0,56,0.00,,,0.03,WUHU216TE923,2013-03-13 02:35:00,
2013-03-12 22:45:00,38.7,24.8,29.98,North,0,0.0,0.0,57,0.00,,,0.03,WUHU216TE923,2013-03-13 02:45:00,
2013-03-12 22:51:00,38.7,24.8,29.98,North,0,0.0,0.0,57,0.00,,,0.03,WUHU216TE923,2013-03-13 02:51:00,
2013-03-12 22:55:00,38.3,24.4,29.98,North,0,0.0,0.0,57,0.00,,,0.03,WUHU216TE923,2013-03-13 02:55:00,
2013-03-12 23:01:00,38.3,24.9,29.98,North,0,0.0,0.0,58,0.00,,,0.03,WUHU216TE923,2013-03-13 03:01:00,
2013-03-12 23:05:00,38.1,24.7,29.98,NW,315,0.0,0.0,58,0.00,,,0.03,WUHU216TE923,2013-03-13 03:05:00,
2013-03-12 23:11:00,37.9,24.5,29.98,NW,315,0.0,0.0,58,0.00,,,0.03,WUHU216TE923,2013-03-13 03:11:00,
2013-03-12 23:15:00,37.8,24.4,29.98,NW,315,0.0,0.0,58,0.00,,,0.03,WUHU216TE923,2013-03-13 03:15:00,
2013-03-12 23:21:00,37.6,24.2,29.98,NW,315,0.0,0.0,58,0.00,,,0.03,WUHU216TE923,2013-03-13 03:21:00,
2013-03-12 23:25:00,37.4,24.0,29.98,NW,315,0.0,0.0,58,0.00,,,0.03,WUHU216TE923,2013-03-13 03:25:00,
2013-03-12 23:31:00,37.2,24.2,29.98,NW,315,0.0,0.0,59,0.00,,,0.03,WUHU216TE923,2013-03-13 03:31:00,
2013-03-12 23:35:00,37.0,24.0,29.98,NW,315,0.0,0.0,59,0.00,,,0.03,WUHU216TE923,2013-03-13 03:35:00,
2013-03-12 23:45:00,36.9,23.9,29.99,NW,315,0.0,0.0,59,0.00,,,0.03,WUHU216TE923,2013-03-13 03:45:00,
2013-03-12 23:51:00,36.9,23.9,29.99,NW,315,0.0,0.0,59,0.00,,,0.03,WUHU216TE923,2013-03-13 03:51:00,
2013-03-12 23:55:00,36.7,23.8,29.99,NW,315,0.0,0.0,59,0.00,,,0.03,WUHU216TE923,2013-03-13 03:55:00,